Home > Weather > Ibiza > Past weeks

Flag for Spain Past Weather in Ibiza, Ibiza, Spain — Yesterday and Last 2 Weeks

Now
82 °F

Passing clouds.


Feels Like: 85 °F
Forecast: 68 / 84 °F
Wind: 9 mph from East

Location: Ibiza / Es Codola

Current Time: Jul 23, 2016 at 3:22:27 PM

Latest Report: Jul 23, 2016 at 3:00 PM


Visibility: N/A

Pressure: 30.07 "Hg

Humidity: 62%

Dew Point: 68 °F

Location of IbizaLocation

Past Weather in Ibiza — Graph

°F

Ibiza Temperature Yesterday

Maximum temperature yesterday: 88 °F (at 2:00 PM)
Minimum temperature yesterday: 70 °F (at 5:30 AM)
Average temperature yesterday: 79 °F

High & Low Weather Summary for the Past Weeks

 TemperatureHumidityPressure
High88 °F (Jul 8, 5:30 PM)94% (Jul 12, 6:00 AM)30.21 "Hg (Jul 12, 6:00 AM)
Low63 °F (Jul 16, 4:00 AM)35% (Jul 8, 7:30 PM)29.80 "Hg (Jul 22, 5:30 AM)
Average77 °F68%30.04 "Hg
* Reported Jul 8 2:00 PM — Jul 23 2:00 PM, Ibiza, Weather by CustomWeather, © 2016

Note: Actual official high and low records may vary slightly from our data, if they occured in-between our weather recording intervals... More about our weather records

Advertising

Ibiza Weather History for the Previous 24 Hours

Scroll right to see more
 ConditionsComfort  
Time TempWeatherWind HumidityBarometerVisibility
2:00 PM
Sat, Jul 23
82 °FScattered clouds.5 mph58%30.07 "HgN/A
1:30 PM81 °FScattered clouds.6 mph62%30.07 "HgN/A
1:00 PM82 °FPassing clouds.10 mph58%30.07 "HgN/A
12:30 PM81 °FPassing clouds.10 mph66%30.07 "HgN/A
11:30 AM81 °FPassing clouds.8 mph66%30.07 "HgN/A
11:00 AM79 °FPassing clouds.3 mph61%30.07 "HgN/A
10:30 AM77 °FPassing clouds.7 mph65%30.07 "HgN/A
10:00 AM77 °FPassing clouds.6 mph65%30.04 "HgN/A
9:30 AM77 °FPassing clouds.8 mph74%30.07 "HgN/A
9:00 AM77 °FPassing clouds.3 mph74%30.04 "HgN/A
8:30 AM75 °FSunny.No wind78%30.04 "Hg10 mi
8:00 AM75 °FSunny.1 mph74%30.04 "Hg10 mi
7:30 AM75 °FPassing clouds.3 mph74%30.01 "HgN/A
7:00 AM73 °FClear.6 mph78%30.01 "Hg10 mi
6:30 AM73 °FPassing clouds.5 mph78%30.01 "HgN/A
6:00 AM73 °FClear.5 mph74%30.01 "Hg10 mi
5:30 AM73 °FClear.3 mph74%30.01 "Hg10 mi
5:00 AM73 °FClear.5 mph74%29.98 "Hg10 mi
4:30 AM75 °FClear.5 mph69%29.98 "Hg10 mi
4:00 AM75 °FClear.5 mph69%29.98 "Hg10 mi
3:00 AM75 °FClear.8 mph74%30.01 "Hg10 mi
2:30 AM75 °FClear.8 mph69%30.01 "Hg10 mi
2:00 AM75 °FClear.10 mph69%30.01 "Hg10 mi
1:30 AM77 °FClear.13 mph65%30.01 "Hg10 mi
1:00 AM75 °FClear.9 mph69%30.01 "Hg10 mi
12:30 AM75 °FPassing clouds.6 mph74%30.01 "HgN/A
12:00 AM75 °FClear.8 mph74%29.98 "Hg10 mi
11:30 PM
Fri, Jul 22
77 °FPassing clouds.10 mph69%29.98 "HgN/A
11:00 PM77 °FClear.10 mph69%29.98 "Hg10 mi
10:30 PM79 °FPassing clouds.9 mph65%29.95 "HgN/A
10:00 PM79 °FPassing clouds.10 mph65%29.92 "HgN/A
9:30 PM79 °FSunny.12 mph65%29.89 "Hg10 mi
9:00 PM81 °FPassing clouds.10 mph62%29.89 "HgN/A
8:30 PM81 °FSunny.12 mph58%29.89 "Hg10 mi
8:00 PM84 °FPassing clouds.9 mph48%29.86 "HgN/A
7:30 PM84 °FPassing clouds.12 mph51%29.86 "HgN/A
7:00 PM84 °FPassing clouds.10 mph51%29.86 "HgN/A
6:00 PM84 °FPassing clouds.15 mph55%29.86 "HgN/A
5:00 PM84 °FPassing clouds.15 mph55%29.86 "HgN/A
4:30 PM86 °FPassing clouds.15 mph55%29.86 "HgN/A
4:00 PM86 °FPassing clouds.15 mph52%29.86 "HgN/A
3:30 PM86 °FPassing clouds.16 mph52%29.86 "HgN/A
3:00 PM86 °FPassing clouds.13 mph55%29.86 "HgN/A
Weather by CustomWeather, © 2016

See weather overviewHow to use our weather pages